Regional Weather Roundup
Issued by NWS Jackson, KY

Home | Current Version | Previous Version | Graphics & Text | Print | Product List | Glossary On
Versions: 1 2 3 4 5 6 7 8 9 10 11 12 13 14 15 16 17 18 19 20 21 22 23 24 25 26 27
000
ASUS43 KJKL 050810
RWRJKL

EAST KENTUCKY HOURLY WEATHER ROUNDUP
NATIONAL WEATHER SERVICE JACKSON KY
300 AM EST MON DEC 05 2016

NOTE: "FAIR" INDICATES FEW OR NO CLOUDS BELOW 12,000 FEET WITH
NO SIGNIFICANT WEATHER AND/OR OBSTRUCTIONS TO VISIBILITY.

* THESE REPORTS ARE NOT UNDER NWS QUALITY CONTROL AND MAY NOT
  REPORT WEATHER SUCH AS PRECIPITATION AND FOG.

KYZ079-080-083-085-087-088-110-112-115-119-120-050900
...EASTERN KENTUCKY...

CITY           SKY/WX    TMP DP  RH WIND       PRES   REMARKS
JACKSON        CLOUDY    46  42  86 W7        30.01R
LONDON         CLOUDY    46  43  89 W5        30.02R
SOMERSET*      CLOUDY    43  43 100 NW6       30.05R
MONTICELLO*    CLOUDY    45  43  93 W5        30.05R
WILLIAMSBURG*  CLOUDY    45  45 100 CALM      30.03R
MIDDLESBORO*   CLOUDY    46  46 100 CALM      30.02R FOG
HARLAN APT*    CLOUDY    45  45 100 SW3       30.01R
PIKE CO APT*   CLOUDY    46  46 100 W7        30.01R
MOREHEAD APT*  CLOUDY    45  41  87 VRB6      30.03S
ASHLAND*       CLOUDY    46  43  87 W8        29.99S
$$

KYZ035-036-041-042-044-050-067-078-099-050900
...CENTRAL KENTUCKY...

CITY           SKY/WX    TMP DP  RH WIND       PRES   REMARKS
MT STERLING*   CLOUDY    43  41  93 W9        30.03S
FLEMING/MASON* CLOUDY    42  40  91 W8        30.02S
DANVILLE*      CLOUDY    43  39  87 W9        30.04S
LEXINGTON      CLOUDY    43  39  86 W7        30.03R
FRANKFORT      CLOUDY    42  36  79 W5        30.03R
LOUISVILLE     CLOUDY    41  35  79 W7        30.05R
LEBANON*       CLOUDY    41  39  93 NW7       30.05R
GLASGOW*       CLOUDY    42  42 100 NW7       30.06R
BOWLING GREEN  CLOUDY    42  38  85 NW8       30.08R
$$

KYZ091>093-OHZ055-061-077-WVZ005-015-034-035-042-050900
...SOUTHERN OHIO/WEST VIRGINIA...

CITY           SKY/WX    TMP DP  RH WIND       PRES   REMARKS
COVINGTON      CLOUDY    39  36  89 W8        30.01R WCI  33
COLUMBUS       CLOUDY    40  37  89 W16       29.96R WCI  31
DAYTON         CLOUDY    35  31  85 W16       30.00R WCI  25
WILMINGTON     CLOUDY    38  35  89 W16       29.99R WCI  29
HUNTINGTON     CLOUDY    47  42  83 SW9       30.01R
CHARLESTON     CLOUDY    48  43  82 W13G20    29.99R
PINEVILLE*     CLOUDY    44  42  90 MISG      30.03S FOG
BECKLEY        CLOUDY    44  42  93 W8        29.97R
BLUEFIELD      CLOUDY    43  42  97 W13       29.97S FOG
$$

VAZ002-007-008-TNZ017-027-036-066-071-050900
...SOUTHWEST VIRGINIA/EAST TENNESSEE...

CITY           SKY/WX    TMP DP  RH WIND       PRES   REMARKS
WISE*          CLOUDY    43  43 100 SW6       30.00S FOG
JONESVILLE*    CLOUDY    45  45 100 CALM      30.04R FOG
ABINGDON*      DRIZZLE   46  46 100 W6        30.01S
BRISTOL        CLOUDY    45  44  97 S3        30.02R FOG
MORRISTOWN*    CLOUDY    45  45 100 S5        30.01S FOG
SEVIERVILLE*   CLOUDY    43  43 100 CALM      30.03R
KNOXVILLE      LGT RAIN  46  45  96 CALM      30.02S FOG
OAK RIDGE      CLOUDY    48  45  89 SW5       30.04R
CROSSVILLE     CLOUDY    44  44 100 W3        30.01S FOG
NASHVILLE      CLOUDY    45  42  89 NW6       30.06R
$$

...KEY TO REMARKS...
VSB - VISIBILITY IN MILES
WCI - WIND CHILL INDEX
HX  - HEAT INDEX

$$




USA.gov is the U.S. government's official web portal to all federal, state and local government web resources and services.